Location: Del Amo
(33.8464°N, 118.2104°W)
Time: 07:42:38
(UTC+00:00)

Transit 2A Rocket - All Passes

Search period start: 19 September 2024 00:00
Search period end: 29 September 2024 00:00
Orbit: 582 x 909 km, 66.7° (Epoch: 18 September)

Date Brightness Start Highest point End Pass type
(mag) Time Alt. Az. Time Alt. Az. Time Alt. Az.
19 Sep - 04:49:05 10° SSE 04:53:27 23° ESE 04:58:00 10° NE night (unlit)
19 Sep - 06:29:56 10° SW 06:35:33 48° WNW 06:41:26 10° NNE night (unlit)
19 Sep - 15:17:31 10° NNW 15:23:05 60° ENE 15:28:09 10° SE daylight
19 Sep - 17:02:06 10° WNW 17:04:49 14° WSW 17:07:25 10° SW daylight
20 Sep - 04:07:43 10° ESE 04:09:31 11° E 04:11:21 10° E night (unlit)
20 Sep - 05:45:19 10° SSW 05:51:08 85° WNW 05:57:15 10° NNE night (unlit)
20 Sep - 07:31:32 10° WNW 07:34:32 14° NW 07:37:35 10° NNW visible
20 Sep - 14:33:29 10° N 14:38:34 33° NE 14:43:13 10° ESE daylight
20 Sep - 16:16:16 10° NW 16:20:51 28° WSW 16:25:07 10° SSW daylight
21 Sep - 05:01:14 10° S 05:06:52 54° ESE 05:12:45 10° NE night (unlit)
21 Sep - 06:45:06 10° WSW 06:49:42 23° NW 06:54:27 10° N visible
21 Sep - 13:49:51 10° N 13:53:51 19° NE 13:57:37 10° E daylight
21 Sep - 15:31:21 10° NW 15:36:46 54° WSW 15:41:39 10° S daylight
22 Sep - 04:17:48 10° SSE 04:22:43 29° ESE 04:27:51 10° NE night (unlit)
22 Sep - 05:59:36 10° SW 06:05:03 38° WNW 06:10:42 10° N night (unlit)
22 Sep - 13:07:18 10° NNE 13:08:58 11° NE 13:10:35 10° ENE visible
22 Sep - 14:46:52 10° NNW 14:52:29 79° ENE 14:57:32 10° SSE daylight
23 Sep - 03:35:22 10° SE 03:38:43 16° ESE 03:42:10 10° ENE night (unlit)
23 Sep - 05:14:44 10° SW 05:20:32 67° WNW 05:26:37 10° NNE night (unlit)
23 Sep - 07:02:33 10° WNW 07:04:11 11° NW 07:05:49 10° NNW visible
23 Sep - 14:02:42 10° NNW 14:08:02 42° ENE 14:12:52 10° SE daylight
23 Sep - 15:46:08 10° WNW 15:50:03 21° WSW 15:53:45 10° SSW daylight
24 Sep - 04:30:24 10° SSW 04:36:11 70° ESE 04:42:15 10° NNE night (unlit)
24 Sep - 06:15:12 10° W 06:19:16 19° NW 06:23:25 10° N visible
24 Sep - 13:18:53 10° N 13:23:23 24° NE 13:27:34 10° ESE visible
24 Sep - 15:00:55 10° NW 15:06:02 40° WSW 15:10:40 10° S daylight
25 Sep - 03:46:39 10° S 03:51:59 38° ESE 03:57:32 10° NE night (unlit)
25 Sep - 05:29:21 10° WSW 05:34:32 31° NW 05:39:52 10° N night (unlit)
25 Sep - 12:35:39 10° NNE 12:38:34 14° NE 12:41:20 10° ENE visible
25 Sep - 14:16:16 10° NNW 14:21:49 79° WSW 14:26:49 10° SSE daylight
26 Sep - 03:03:40 10° SSE 03:07:54 21° ESE 03:12:16 10° ENE visible
26 Sep - 04:44:14 10° SW 04:49:56 52° WNW 04:55:53 10° NNE visible
26 Sep - 13:31:57 10° NNW 13:37:26 55° ENE 13:42:22 10° SE daylight
26 Sep - 15:16:15 10° WNW 15:19:12 15° WSW 15:22:02 10° SW daylight
27 Sep - 02:22:58 10° ESE 02:23:57 10° E 02:24:55 10° E visible
27 Sep - 03:59:38 10° SSW 04:05:31 89° ESE 04:11:38 10° NNE visible
27 Sep - 05:45:30 10° W 05:48:50 15° NW 05:52:12 10° NNW visible
27 Sep - 12:47:58 10° N 12:52:51 30° NE 12:57:20 10° ESE visible
27 Sep - 14:30:33 10° NW 14:35:13 30° WSW 14:39:31 10° SSW daylight
28 Sep - 03:15:37 10° S 03:21:14 50° ESE 03:27:05 10° NE visible
28 Sep - 04:59:12 10° WSW 05:04:00 25° NW 05:08:55 10° N visible
28 Sep - 12:04:24 10° N 12:08:05 18° NE 12:11:33 10° E visible
28 Sep - 13:45:41 10° NW 13:51:05 59° WSW 13:55:57 10° S daylight
